When you browse on this site, cookies collect data to enhance your experience and personalize the content and advertising you see.
Visit our Privacy Policy to learn more. By continuing to use the site, you agree to this use of cookies and data.
  • Em Portugal
  • Lista de países
  • Para 7 dias
  • Temperatura da água
  • Mapa do tempo
  • Widgets de tempo
  • user-avatar
    Iniciar Sessão

    Previsão horária em Ottal

    Hoje, 31 Maio, Domingo

    Tempo Temperatura Precipitação Vento Pressão Humidade
    00:00 +9°C° 0.1 mm 0 m/s 594 mmHg 80%
    01:00 +9°C° 0.2 mm 1 m/s 594 mmHg 84%
    02:00 +8°C° 0.2 mm 1 m/s 594 mmHg 87%
    03:00 +8°C° 0 mm 1 m/s 594 mmHg 89%
    04:00 +9°C° 0.1 mm 1 m/s 595 mmHg 88%
    05:00 +10°C° 0.1 mm 1 m/s 595 mmHg 87%
    06:00 +11°C° 0.1 mm 1 m/s 596 mmHg 86%
    07:00 +12°C° 0 mm 1 m/s 597 mmHg 81%
    08:00 +13°C° 0 mm 2 m/s 597 mmHg 76%
    09:00 +14°C° 0 mm 3 m/s 598 mmHg 70%
    10:00 +14°C° 0.1 mm 3 m/s 598 mmHg 67%
    11:00 +16°C° 0.1 mm 3 m/s 598 mmHg 65%
    12:00 +16°C° 0.1 mm 3 m/s 598 mmHg 63%
    13:00 +17°C° 0.1 mm 3 m/s 598 mmHg 61%
    14:00 +17°C° 0.1 mm 3 m/s 598 mmHg 59%
    15:00 +17°C° 0 mm 3 m/s 597 mmHg 59%
    16:00 +16°C° 0 mm 3 m/s 597 mmHg 62%
    17:00 +15°C° 0 mm 2 m/s 597 mmHg 65%
    18:00 +15°C° 0 mm 2 m/s 596 mmHg 68%
    19:00 +13°C° 0 mm 2 m/s 596 mmHg 74%
    20:00 +10°C° 0 mm 2 m/s 595 mmHg 79%
    21:00 +9°C° 0 mm 1 m/s 594 mmHg 85%
    22:00 +9°C° 0 mm 1 m/s 594 mmHg 84%
    23:00 +7°C° 0 mm 2 m/s 594 mmHg 82%

    Amanhã, 1 Junho, Segunda-feira

    Tempo Temperatura Precipitação Vento Pressão Humidade
    00:00 +7°C° 0 mm 2 m/s 593 mmHg 81%
    01:00 +8°C° 0 mm 1 m/s 593 mmHg 77%
    02:00 +7°C° 0 mm 1 m/s 593 mmHg 73%
    03:00 +7°C° 0 mm 1 m/s 593 mmHg 69%
    04:00 +9°C° 0 mm 1 m/s 594 mmHg 64%
    05:00 +10°C° 0 mm 1 m/s 594 mmHg 60%
    06:00 +12°C° 0 mm 1 m/s 595 mmHg 55%
    07:00 +13°C° 0 mm 1 m/s 595 mmHg 55%
    08:00 +14°C° 0 mm 2 m/s 596 mmHg 56%
    09:00 +16°C° 0 mm 3 m/s 596 mmHg 57%
    10:00 +16°C° 0 mm 3 m/s 596 mmHg 55%
    11:00 +17°C° 0 mm 3 m/s 596 mmHg 53%
    12:00 +18°C° 0 mm 3 m/s 596 mmHg 51%
    13:00 +18°C° 0 mm 3 m/s 596 mmHg 49%
    14:00 +18°C° 0 mm 3 m/s 595 mmHg 47%
    15:00 +18°C° 0 mm 3 m/s 595 mmHg 44%
    16:00 +18°C° 0 mm 3 m/s 595 mmHg 49%
    17:00 +17°C° 0 mm 2 m/s 594 mmHg 54%
    18:00 +16°C° 0 mm 2 m/s 593 mmHg 59%
    19:00 +14°C° 0 mm 2 m/s 593 mmHg 62%
    20:00 +12°C° 0 mm 1 m/s 592 mmHg 66%
    21:00 +10°C° 0 mm 1 m/s 591 mmHg 69%
    22:00 +10°C° 0 mm 1 m/s 591 mmHg 69%
    23:00 +9°C° 0 mm 1 m/s 591 mmHg 68%

    Depois de amanhã, 2 Junho, Terça-feira

    Tempo Temperatura Precipitação Vento Pressão Humidade
    00:00 +9°C° 0 mm 1 m/s 590 mmHg 68%
    01:00 +9°C° 0 mm 1 m/s 590 mmHg 67%
    02:00 +9°C° 0 mm 1 m/s 590 mmHg 67%
    03:00 +9°C° 0 mm 1 m/s 590 mmHg 66%
    04:00 +10°C° 0 mm 1 m/s 591 mmHg 63%
    05:00 +12°C° 0 mm 1 m/s 592 mmHg 60%
    06:00 +14°C° 0 mm 1 m/s 592 mmHg 57%
    07:00 +15°C° 0 mm 2 m/s 593 mmHg 52%
    08:00 +17°C° 0 mm 3 m/s 593 mmHg 47%
    09:00 +18°C° 0 mm 4 m/s 594 mmHg 41%
    10:00 +19°C° 0 mm 4 m/s 594 mmHg 40%
    11:00 +20°C° 0 mm 5 m/s 595 mmHg 38%
    12:00 +20°C° 0 mm 6 m/s 595 mmHg 36%
    13:00 +21°C° 0 mm 5 m/s 594 mmHg 35%
    14:00 +21°C° 0 mm 4 m/s 594 mmHg 35%
    15:00 +21°C° 0 mm 3 m/s 594 mmHg 35%
    16:00 +17°C° 1.8 mm 3 m/s 593 mmHg 51%
    17:00 +13°C° 1.8 mm 4 m/s 591 mmHg 68%
    18:00 +10°C° 1.8 mm 4 m/s 590 mmHg 85%
    19:00 +10°C° 0.6 mm 4 m/s 590 mmHg 82%
    20:00 +10°C° 0.6 mm 3 m/s 590 mmHg 80%
    21:00 +10°C° 0.6 mm 2 m/s 591 mmHg 78%
    22:00 +10°C° 0.3 mm 2 m/s 590 mmHg 78%
    23:00 +9°C° 0.3 mm 2 m/s 590 mmHg 78%

    3 Junho, Quarta-feira

    Tempo Temperatura Precipitação Vento Pressão Humidade
    00:00 +9°C° 0.3 mm 2 m/s 589 mmHg 77%
    01:00 +9°C° 0.2 mm 2 m/s 589 mmHg 77%
    02:00 +9°C° 0.2 mm 1 m/s 589 mmHg 76%
    03:00 +9°C° 0.2 mm 1 m/s 588 mmHg 76%
    04:00 +10°C° 0.2 mm 1 m/s 589 mmHg 74%
    05:00 +12°C° 0.2 mm 1 m/s 590 mmHg 73%
    06:00 +13°C° 0.2 mm 1 m/s 590 mmHg 72%
    07:00 +15°C° 0.1 mm 2 m/s 591 mmHg 65%
    08:00 +16°C° 0.1 mm 3 m/s 591 mmHg 58%
    09:00 +18°C° 0.1 mm 3 m/s 592 mmHg 52%
    10:00 +18°C° 0 mm 3 m/s 592 mmHg 47%
    11:00 +19°C° 0 mm 3 m/s 592 mmHg 42%
    12:00 +20°C° 0 mm 4 m/s 593 mmHg 38%
    13:00 +20°C° 0 mm 3 m/s 593 mmHg 35%
    14:00 +20°C° 0 mm 3 m/s 592 mmHg 33%
    15:00 +20°C° 0 mm 3 m/s 592 mmHg 30%
    16:00 +18°C° 0 mm 3 m/s 592 mmHg 39%
    17:00 +17°C° 0 mm 2 m/s 592 mmHg 47%
    18:00 +15°C° 0 mm 2 m/s 591 mmHg 56%
    19:00 +14°C° 0.1 mm 2 m/s 591 mmHg 57%
    20:00 +13°C° 0.1 mm 2 m/s 590 mmHg 58%
    21:00 +10°C° 0.1 mm 2 m/s 590 mmHg 59%
    22:00 +10°C° 0.3 mm 2 m/s 590 mmHg 64%
    23:00 +9°C° 0.3 mm 2 m/s 590 mmHg 69%

    4 Junho, Quinta-feira

    Tempo Temperatura Precipitação Vento Pressão Humidade
    00:00 +8°C° 0.3 mm 2 m/s 590 mmHg 74%
    01:00 +9°C° 0.1 mm 1 m/s 590 mmHg 76%
    02:00 +9°C° 0.1 mm 1 m/s 590 mmHg 78%
    03:00 +8°C° 0.1 mm 1 m/s 590 mmHg 80%
    04:00 +10°C° 0 mm 1 m/s 591 mmHg 75%
    05:00 +11°C° 0 mm 1 m/s 593 mmHg 70%
    06:00 +12°C° 0 mm 1 m/s 594 mmHg 66%
    07:00 +14°C° 0 mm 2 m/s 594 mmHg 58%
    08:00 +15°C° 0 mm 2 m/s 595 mmHg 51%
    09:00 +16°C° 0 mm 3 m/s 595 mmHg 44%
    10:00 +17°C° 0 mm 3 m/s 596 mmHg 41%
    11:00 +18°C° 0 mm 3 m/s 596 mmHg 39%
    12:00 +19°C° 0 mm 4 m/s 597 mmHg 36%
    13:00 +19°C° 0 mm 3 m/s 597 mmHg 35%
    14:00 +19°C° 0 mm 3 m/s 597 mmHg 33%
    15:00 +19°C° 0 mm 3 m/s 597 mmHg 32%
    16:00 +18°C° 0 mm 3 m/s 596 mmHg 37%
    17:00 +17°C° 0 mm 3 m/s 596 mmHg 43%
    18:00 +16°C° 0 mm 2 m/s 595 mmHg 49%
    19:00 +14°C° 0 mm 2 m/s 595 mmHg 57%
    20:00 +12°C° 0 mm 2 m/s 594 mmHg 65%
    21:00 +10°C° 0 mm 1 m/s 593 mmHg 73%
    22:00 +9°C° 0 mm 1 m/s 593 mmHg 72%
    23:00 +9°C° 0 mm 1 m/s 593 mmHg 72%

    5 Junho, Sexta-feira

    Tempo Temperatura Precipitação Vento Pressão Humidade
    00:00 +9°C° 0 mm 1 m/s 593 mmHg 71%
    01:00 +8°C° 0 mm 1 m/s 593 mmHg 73%
    02:00 +8°C° 0 mm 1 m/s 593 mmHg 75%
    03:00 +8°C° 0 mm 1 m/s 593 mmHg 77%
    04:00 +9°C° 0 mm 1 m/s 594 mmHg 75%
    05:00 +11°C° 0 mm 1 m/s 595 mmHg 73%
    06:00 +12°C° 0 mm 1 m/s 596 mmHg 71%
    07:00 +14°C° 0.1 mm 1 m/s 597 mmHg 65%
    08:00 +15°C° 0.1 mm 2 m/s 597 mmHg 59%
    09:00 +16°C° 0.1 mm 3 m/s 598 mmHg 53%
    10:00 +16°C° 0.1 mm 3 m/s 598 mmHg 50%
    11:00 +17°C° 0.1 mm 3 m/s 599 mmHg 47%
    12:00 +18°C° 0.1 mm 4 m/s 599 mmHg 44%
    13:00 +18°C° 0 mm 4 m/s 599 mmHg 42%
    14:00 +18°C° 0 mm 4 m/s 599 mmHg 41%
    15:00 +18°C° 0 mm 4 m/s 599 mmHg 40%
    16:00 +17°C° 0.4 mm 3 m/s 599 mmHg 48%
    17:00 +16°C° 0.4 mm 3 m/s 599 mmHg 57%
    18:00 +14°C° 0.4 mm 2 m/s 598 mmHg 66%
    19:00 +13°C° 0.9 mm 2 m/s 598 mmHg 73%
    20:00 +10°C° 0.9 mm 2 m/s 598 mmHg 80%
    21:00 +9°C° 0.9 mm 1 m/s 597 mmHg 88%
    22:00 +9°C° 0.8 mm 1 m/s 597 mmHg 90%
    23:00 +9°C° 0.8 mm 1 m/s 597 mmHg 92%
    Mostrar mais